Regional Weather Roundup
Issued by NWS Sterling, VA

Home | Current Version | Previous Version | Graphics & Text | Print | Product List | Glossary On
Versions: 1 2 3 4 5 6 7 8 9 10 11 12 13 14 15 16 17 18 19 20 21 22 23 24 25 26 27 28 29 30 31 32 33 34 35 36 37 38 39 40 41 42 43 44 45 46 47 48 49 50
000
ASUS41 KLWX 230210
RWRLWX

REGIONAL WEATHER ROUNDUP
NATIONAL WEATHER SERVICE BALTIMORE MD/WASHINGTON DC
900 PM EST SAT NOV 22 2014

Note: "FAIR" indicates few or no clouds below 12,000 feet
with no significant weather and/or obstructions to visibility.
 TC=TEMPERATURE CELSIUS

 * =Non NWS site. Station does not report precipitation (e.g. rain,
    snow, etc.), thunder, or fog.

DCZ001-MDZ009-015-VAZ040>042-051-053>054-230300-
WASHINGTON METRO

CITY           SKY/WX    TMP DP  RH WIND       PRES   REMARKS
WASHINGTON NAT MOCLDY    44  24  45 S9        30.29F
DULLES         MOCLDY    42  16  34 S9        30.26F
ANDREWS AFB    MOCLDY    38  18  45 SW7       30.28S
FT BELVOIR     MOCLDY    34  22  61 VRB3      30.29F
QUANTICO       CLEAR     43  18  36 SW6       30.31S
COLLEGE PARK*  CLOUDY    45  18  33 CALM      30.28S
LEESBURG*      CLOUDY    43  21  42 S8        30.26S
MANASSAS*      MOCLDY    39  19  45 S6        30.27F
GAITHERSBURG*  CLOUDY    43  16  33 S5        30.28F

$$

MDZ006>007-011-014-230300-
BALTIMORE METRO

CITY           SKY/WX    TMP DP  RH WIND       PRES   REMARKS
BWI AIRPORT    MOCLDY    40  17  39 CALM      30.27S
MD SCIENCE CTR   N/A     44  17  33 MISG      30.28S
MARTIN STATE   CLEAR     43  23  45 S3        30.29F
ANNAPOLIS      MOCLDY    41  19  41 S7        30.29F
FORT MEADE*    CLOUDY    32  25  74 CALM      30.29F

$$

MDZ012-015-019>023-230300-
MARYLAND EASTERN SHORE

CITY           SKY/WX    TMP DP  RH WIND       PRES   REMARKS
OCEAN CITY     CLEAR     41  27  57 SW9       30.33S
SALISBURY      CLEAR     36  24  62 S6        30.33S
BAY BRIDGE AP*   N/A     45  21  39 S9G16     30.29S
CAMBRIDGE*     CLEAR     36  27  69 S3        30.31S

$$

MDZ017>025-230300-
SOUTHERN MARYLAND

CITY           SKY/WX    TMP DP  RH WIND       PRES   REMARKS
PATUXENT RIVER CLEAR     41  19  41 SW3       30.31S
ST INIGOES     CLEAR     43  20  39 S9        30.32S
LEONARDTOWN*   CLEAR     41  18  38 SW6       30.32F

$$

MDZ003>005-230300-
NORTH CENTRAL MARYLAND

CITY           SKY/WX    TMP DP  RH WIND       PRES   REMARKS
FREDERICK*     PTCLDY    45  16  31 CALM      30.27S
HAGERSTOWN APT MOCLDY    40  17  39 CALM      30.20F
WESTMINSTER*   MOCLDY    39  16  38 S6        30.22F

$$

MDZ501>502-230300-
WESTERN MARYLAND

CITY           SKY/WX    TMP DP  RH WIND       PRES   REMARKS
OAKLAND*       CLEAR     43  27  52 S12       30.15S
CUMBERLAND*    CLEAR     34  21  60 CALM      30.23S

$$

VAZ025>031-230300-
SHENANDOAH VALLEY

CITY           SKY/WX    TMP DP  RH WIND       PRES   REMARKS
WINCHESTER*    CLEAR     41  14  33 S5        30.20F
FRONT ROYAL*   CLOUDY    46  21  36 SW10G16   30.20F
LURAY*         CLOUDY    45  23  42 SW9       30.24R
NEW MARKET*    MOCLDY    42  20  41 W8        30.24S
STAUNTON*      MOCLDY    39  17  39 CALM      30.28R
WAYNESBORO*    FAIR      38  17  42 SW3       30.25S

$$

WVZ021-048>050-054>055-230300-
EASTERN WEST VIRGINIA PANHANDLE

CITY           SKY/WX    TMP DP  RH WIND       PRES   REMARKS
MARTINSBURG    CLEAR     35  19  52 CALM      30.21F
PETERSBURG*    MOCLDY    48  15  26 S14       30.18F

$$

VAZ036>039-050-230300-
CENTRAL FOOTHILLS

CITY           SKY/WX    TMP DP  RH WIND       PRES   REMARKS
CHARLOTTESVILL CLEAR     38  19  46 S9        30.28S
CULPEPER*      CLEAR     43  18  36 S5        30.28S
ORANGE*        CLEAR     36  21  55 S6        30.30S
GORDONSVILLE*  FAIR      37  18  46 CALM      30.29R
WARRENTON*     FAIR      42  24  48 S7        30.26F

$$

VAZ055>057-230300-
NORTH AND CENTRAL PIEDMONT

CITY           SKY/WX    TMP DP  RH WIND       PRES   REMARKS
FREDERICKSBRG* CLEAR     41  18  38 CALM      30.30S
STAFFORD*      CLEAR     40  13  33 CALM      30.34S

$$

NCZ024-NYZ072-PAZ021-071-VAZ022-071-230300-
OTHER REGIONAL OBSERVATIONS

CITY           SKY/WX    TMP DP  RH WIND       PRES   REMARKS
NEW YORK CITY  MOCLDY    43  18  36 MISG      30.24S
PHILADELPHIA   MOCLDY    43  23  45 SW12      30.28F
PITTSBURGH     MOCLDY    47  30  51 S6        30.10F
ROANOKE        CLEAR     33  19  56 W3        30.34R
RICHMOND       PTCLDY    33  19  56 S3        30.33F
RALEIGH        PTCLDY    37  20  50 CALM      30.36S

$$

ANZ530>537-230300-
MARINE OBSERVATIONS

STATION/POSITION TIME  TEMP    WIND        PRES
                       AIR SEA DIR/SP/G
                 (UTC) (F)     (DEG/KT/KT) (MB)
THOMAS PT LIGHT  0200   45 46  200/ 15/ 17 1026.9F
BALT KEY BRIDGE  0200   44     170/  8/  9 1025.1R
COVE POINT       0200   43     200/  9/  9 1026.2F
LEWISETTA        0200   42 42  220/ 12/ 14 1026.3S
SOLOMONS ISLAND  0200      48                N/A
PINEY POINT      0200          230/ 16/ 17   N/A

$$



USA.gov is the U.S. government's official web portal to all federal, state and local government web resources and services.